Waarnemingen

Advertentie
Mijn weer
Socoa, Frankrijk (7600): temperatuur & dauwpunt: 20.09.2018 09:00:00 - 26.09.2018 09:00:00 (CEST)Socoa, Frankrijk (7600): windsnelheid & windstoten: 20.09.2018 09:00:00 - 26.09.2018 09:00:00 (CEST)Socoa, Frankrijk (7600): windrichting: 20.09.2018 09:00:00 - 26.09.2018 09:00:00 (CEST)Socoa, Frankrijk (7600): luchtdruk: 20.09.2018 09:00:00 - 26.09.2018 09:00:00 (CEST)Socoa, Frankrijk (7600): zicht: 20.09.2018 09:00:00 - 26.09.2018 09:00:00 (CEST)Socoa, Frankrijk (7600): neerslag: 20.09.2018 09:00:00 - 26.09.2018 09:00:00 (CEST)
Datum & Tijd tt [°C] td [°C] ff [km/u] ff [kn] fx [km/u] fx [kn] dd ppp [hPa] vv [km] rr [mm]
26.09.2018 09:00:00 14,4 11,2 11 6 26 14 O 1026,6 - 0,0
26.09.2018 08:00:00 12,3 10,0 19 10 24 13 OZO 1026,4 - 0,0
26.09.2018 07:00:00 11,7 9,9 10 5 21 11 O 1026,6 - 0,0
26.09.2018 06:00:00 11,0 9,1 10 6 20 11 ZO 1026,8 - 0,0
26.09.2018 05:00:00 10,8 9,1 8 4 13 7 ZO 1027,2 - 0,0
26.09.2018 04:00:00 11,1 9,2 6 4 14 7 ZO 1027,5 - 0,0
26.09.2018 03:00:00 11,3 9,4 7 4 16 8 ZZO 1028,1 - 0,0
26.09.2018 02:00:00 11,4 9,5 8 4 12 6 ZO 1028,5 20 0,0
26.09.2018 01:00:00 11,8 9,5 8 5 14 8 Z 1028,7 - 0,0
26.09.2018 00:00:00 12,1 9,8 8 4 13 7 Z 1028,7 - 0,0
25.09.2018 23:00:00 12,5 9,9 8 4 16 9 Z 1028,6 12 0,0
25.09.2018 22:00:00 13,1 10,1 11 6 13 7 Z 1028,4 - 0,0
25.09.2018 21:00:00 14,1 10,1 9 5 11 6 Z 1028,3 - 0,0
25.09.2018 20:00:00 15,7 9,6 3 2 10 6 WZW 1027,9 - 0,0
25.09.2018 19:00:00 17,7 9,3 7 4 13 7 NW 1027,7 - 0,0
25.09.2018 18:00:00 18,7 9,5 7 4 13 7 NNW 1027,7 - 0,0
25.09.2018 17:00:00 18,4 9,2 6 4 16 9 N 1028,1 25 0,0
25.09.2018 16:00:00 17,7 9,3 10 5 19 10 N 1028,4 - 0,0
25.09.2018 15:00:00 18,9 9,9 11 6 20 11 N 1028,6 - 0,0
25.09.2018 14:00:00 18,1 10,0 13 7 22 12 NNW 1029,2 25 0,0
25.09.2018 13:00:00 17,8 10,2 14 8 21 11 NNW 1029,7 - 0,0
25.09.2018 12:00:00 17,1 10,5 13 7 21 12 NNW 1029,8 - 0,0
25.09.2018 11:00:00 16,2 10,3 12 7 19 10 WNW 1029,6 18 0,0
25.09.2018 10:00:00 13,2 9,6 8 4 13 7 W 1029,2 - 0,0
25.09.2018 09:00:00 9,4 8,2 5 3 10 5 ZZW 1029,4 - 0,0
25.09.2018 08:00:00 8,7 7,3 7 4 11 6 Z 1029,1 20 0,0
25.09.2018 07:00:00 8,9 7,5 6 3 10 5 Z 1029,2 - 0,0
25.09.2018 06:00:00 9,3 7,7 5 3 9 5 ONO 1029,3 - 0,0
25.09.2018 05:00:00 9,7 7,8 6 3 10 6 OZO 1029,5 20 0,0
25.09.2018 04:00:00 10,5 8,3 4 2 16 8 OZO 1029,9 - 0,0
25.09.2018 03:00:00 10,8 8,7 4 2 15 8 ZO 1030,1 - 0,0
25.09.2018 02:00:00 11,3 8,9 5 3 11 6 O 1030,1 20 0,0
25.09.2018 01:00:00 12,3 9,1 5 3 12 7 NO 1030,2 - 0,0
25.09.2018 00:00:00 13,6 9,2 3 2 21 12 N 1030,3 - 0,0
24.09.2018 23:00:00 14,0 9,0 8 4 19 10 W 1030,3 20 0,0
24.09.2018 22:00:00 13,9 9,3 14 8 21 11 ZZW 1030,4 - 0,0
24.09.2018 21:00:00 14,6 9,2 14 8 20 11 ZZW 1030,4 - 0,0
24.09.2018 20:00:00 16,8 10,4 12 6 19 11 W 1030,3 25 0,0
24.09.2018 19:00:00 18,5 10,8 11 6 20 11 WNW 1030,3 - 0,0
24.09.2018 18:00:00 18,9 11,0 11 6 21 11 WNW 1030,3 - 0,0
24.09.2018 17:00:00 17,4 10,7 13 7 27 15 NW 1030,7 22 0,0
24.09.2018 16:00:00 17,8 10,9 16 8 27 14 NNW 1031,1 - 0,0
24.09.2018 15:00:00 18,8 11,6 16 8 25 13 NNW 1031,2 - 0,0
24.09.2018 14:00:00 18,8 11,6 16 9 31 17 N 1031,4 22 0,0
24.09.2018 13:00:00 17,9 11,9 12 6 29 16 N 1031,8 - 0,0
24.09.2018 12:00:00 19,1 12,6 8 4 - - ONO 1031,8 - 0,0
24.09.2018 11:00:00 16,9 12,6 9 5 28 15 ONO 1032,0 22 0,0
24.09.2018 10:00:00 16,3 12,5 16 8 35 19 NO 1031,3 - 0,0
24.09.2018 09:00:00 16,1 12,6 19 10 43 23 NO 1030,5 - 0,0
24.09.2018 08:00:00 16,7 13,8 33 18 45 24 N 1029,6 25 0,0
24.09.2018 07:00:00 17,5 14,8 27 15 39 21 N 1028,7 - 0,0
24.09.2018 06:00:00 18,1 14,6 26 14 44 24 N 1028,4 - 0,0
24.09.2018 05:00:00 18,6 15,3 28 15 38 21 N 1028,0 - 0,0
24.09.2018 04:00:00 18,9 16,3 33 18 44 24 N 1027,7 - 0,0
24.09.2018 03:00:00 19,4 17,2 34 19 58 31 N 1027,4 - 0,2
24.09.2018 02:00:00 19,6 18,4 35 19 50 27 N 1027,1 6 2,2
24.09.2018 01:00:00 19,9 18,9 14 7 23 12 ZW 1026,9 - 1,8
24.09.2018 00:00:00 20,1 18,9 14 7 21 11 ZW 1027,1 - 0,2
23.09.2018 23:00:00 20,1 18,9 14 8 22 12 ZW 1027,1 6 0,8
23.09.2018 22:00:00 20,1 18,8 14 8 31 17 ZW 1027,2 - 0,0
23.09.2018 21:00:00 20,7 19,2 26 14 37 20 W 1026,8 - 0,2
23.09.2018 20:00:00 21,5 18,5 17 9 26 14 WZW 1026,5 - 0,0
23.09.2018 19:00:00 21,7 17,9 11 6 27 15 ZW 1025,9 - 0,0
23.09.2018 18:00:00 21,6 18,4 26 14 37 20 W 1025,6 - 0,0
23.09.2018 17:00:00 23,0 19,0 21 11 32 18 WNW 1025,0 - 0,0
23.09.2018 16:00:00 22,6 18,8 28 15 34 18 NW 1024,9 - 0,0
23.09.2018 15:00:00 24,5 19,1 16 9 23 12 NW 1024,0 - 0,0
23.09.2018 14:00:00 23,6 18,7 20 11 22 12 NNW 1024,1 20 0,0
23.09.2018 13:00:00 24,5 18,9 9 5 13 7 N 1024,1 - 0,0
23.09.2018 12:00:00 23,8 17,3 9 5 11 6 NNO 1024,5 - 0,0
23.09.2018 11:00:00 24,3 17,3 5 3 8 4 ONO 1024,6 20 0,0
23.09.2018 10:00:00 21,3 16,9 3 2 8 4 Z 1024,3 - 0,0
23.09.2018 09:00:00 16,8 15,3 4 2 8 5 ZZO 1024,1 - 0,0
23.09.2018 08:00:00 16,2 14,7 8 4 14 8 Z 1023,8 - 0,0
23.09.2018 07:00:00 16,6 15,0 11 6 13 7 Z 1023,7 - 0,0
23.09.2018 06:00:00 16,6 14,6 5 3 13 7 Z 1024,0 - 0,0
23.09.2018 05:00:00 17,1 15,4 11 6 14 8 Z 1024,1 - 0,0
23.09.2018 04:00:00 17,1 15,4 9 5 13 7 Z 1024,8 - 0,0
23.09.2018 03:00:00 17,3 15,5 6 4 14 8 Z 1025,3 - 0,0
23.09.2018 02:00:00 17,4 15,6 9 5 14 7 ZZW 1025,4 18 0,0
23.09.2018 01:00:00 17,9 15,9 3 2 11 6 WZW 1025,6 - 0,0
23.09.2018 00:00:00 18,4 16,0 7 4 13 7 ZZW 1025,3 - 0,0
22.09.2018 23:00:00 18,9 16,1 9 5 12 6 ZZW 1025,2 18 0,0
22.09.2018 22:00:00 20,0 16,8 9 5 12 6 Z 1024,8 - 0,0
22.09.2018 21:00:00 21,3 16,7 4 2 10 6 WZW 1024,3 - 0,0
22.09.2018 20:00:00 23,1 16,4 8 4 13 7 W 1023,8 20 0,0
22.09.2018 19:00:00 25,2 16,6 9 5 11 6 W 1023,9 - 0,0
22.09.2018 18:00:00 25,6 19,3 5 3 7 4 NW 1023,7 - 0,0
22.09.2018 17:00:00 26,1 19,5 3 2 11 6 NNW 1023,8 - 0,0
22.09.2018 16:00:00 24,9 19,3 9 5 14 7 N 1023,6 - 0,0
22.09.2018 15:00:00 25,8 18,7 11 6 14 7 N 1023,5 - 0,0
22.09.2018 14:00:00 24,8 18,7 6 3 13 7 N 1023,8 18 0,0
22.09.2018 13:00:00 23,8 18,2 11 6 14 7 N 1023,9 - 0,0
22.09.2018 12:00:00 23,4 17,4 10 5 11 6 NNO 1023,9 - 0,0
22.09.2018 11:00:00 21,5 17,9 4 2 8 5 NNO 1023,9 14 0,0
22.09.2018 10:00:00 20,2 17,2 3 1 11 6 O 1023,9 - 0,0
22.09.2018 09:00:00 18,0 17,0 6 3 13 7 OZO 1023,6 - 0,0
22.09.2018 08:00:00 17,2 16,1 6 4 11 6 OZO 1023,6 - 0,0
22.09.2018 07:00:00 17,1 15,6 4 2 14 8 O 1023,2 - 0,0
22.09.2018 06:00:00 17,9 16,4 9 5 15 8 OZO 1023,4 - 0,0
22.09.2018 05:00:00 18,3 16,6 8 4 19 10 OZO 1023,8 - 0,0
22.09.2018 04:00:00 18,5 17,0 14 8 22 12 ZO 1024,2 - 0,0
22.09.2018 03:00:00 18,6 16,9 9 5 14 8 O 1024,6 - 0,0
22.09.2018 02:00:00 18,5 16,7 8 4 12 6 O 1024,9 15 0,0
22.09.2018 01:00:00 18,7 16,8 5 3 10 6 ZO 1025,1 - 0,0
22.09.2018 00:00:00 18,6 16,6 9 5 20 11 OZO 1025,3 - 0,0
21.09.2018 23:00:00 18,5 16,7 15 8 22 12 ONO 1024,9 6 0,0
21.09.2018 22:00:00 18,8 17,3 18 10 26 14 NNO 1025,0 - 0,4
21.09.2018 21:00:00 19,3 17,6 16 9 24 13 ONO 1024,1 - 0,0
21.09.2018 20:00:00 19,4 18,1 12 6 27 15 N 1024,0 15 0,6
21.09.2018 19:00:00 19,6 18,3 19 10 33 18 NNW 1023,7 - 0,4
21.09.2018 18:00:00 20,8 18,2 23 12 38 20 N 1023,1 - 0,0
21.09.2018 17:00:00 22,7 18,5 28 15 40 21 W 1022,8 15 0,0
21.09.2018 16:00:00 23,9 18,1 28 15 41 22 WNW 1022,2 - 0,0
21.09.2018 15:00:00 25,0 16,7 21 11 28 15 W 1021,6 - 0,0
21.09.2018 14:00:00 25,7 16,8 14 8 19 11 W 1021,8 15 0,0
21.09.2018 13:00:00 25,3 17,5 15 8 22 12 W 1022,0 - 0,0
21.09.2018 12:00:00 24,9 17,4 8 4 13 7 W 1021,8 - 0,0
21.09.2018 11:00:00 22,3 18,7 6 3 14 7 WZW 1021,3 10 0,0
21.09.2018 10:00:00 20,0 18,1 9 5 14 7 Z 1020,6 - 0,0
21.09.2018 09:00:00 18,6 17,3 2 1 15 8 ZW 1019,9 - 0,0
21.09.2018 08:00:00 18,1 16,9 13 7 15 8 Z 1019,0 - 0,0
21.09.2018 07:00:00 17,9 16,6 9 5 14 7 ZZW 1018,4 - 0,0
21.09.2018 06:00:00 18,2 16,7 9 5 13 7 Z 1018,1 - 0,0
21.09.2018 05:00:00 18,4 16,9 8 4 11 6 ZZW 1018,1 - 0,0
21.09.2018 04:00:00 18,8 17,1 8 5 11 6 ZZW 1018,0 - 0,0
21.09.2018 03:00:00 19,4 17,5 7 4 12 7 WZW 1018,1 - 0,0
21.09.2018 02:00:00 20,0 17,8 10 6 16 8 ZW 1017,9 15 0,0
21.09.2018 01:00:00 20,3 18,2 11 6 16 9 ZW 1018,3 - 0,0
21.09.2018 00:00:00 20,4 18,2 10 6 18 10 ZW 1018,5 - 0,0
20.09.2018 23:00:00 20,8 18,6 10 5 21 11 WZW 1018,5 - 0,0
20.09.2018 22:00:00 21,3 18,7 18 10 24 13 W 1018,4 - 0,0
20.09.2018 21:00:00 21,7 18,9 11 6 16 9 WNW 1017,7 - 0,0
20.09.2018 20:00:00 21,6 18,4 14 8 16 9 NW 1017,2 - 0,0
20.09.2018 19:00:00 23,3 18,6 8 5 19 10 NNW 1017,0 - 0,0
20.09.2018 18:00:00 24,8 19,0 10 6 15 8 NNW 1016,7 - 0,0
20.09.2018 17:00:00 24,9 19,0 11 6 17 9 N 1017,0 18 0,0
20.09.2018 16:00:00 25,5 18,4 6 4 11 6 N 1017,2 - 0,0
20.09.2018 15:00:00 25,3 18,0 7 4 12 6 NW 1017,8 - 0,0
20.09.2018 14:00:00 25,5 17,9 10 5 15 8 NNW 1018,7 14 0,0
20.09.2018 13:00:00 24,8 18,3 10 6 14 8 N 1019,4 - 0,0
20.09.2018 12:00:00 24,8 18,0 9 5 13 7 N 1019,8 - 0,0
20.09.2018 11:00:00 23,6 17,8 6 3 12 6 NNO 1020,1 14 0,0
20.09.2018 10:00:00 21,4 17,6 3 1 7 4 OZO 1020,3 - 0,0
20.09.2018 09:00:00 18,0 16,7 5 3 9 5 ZZO 1020,7 - 0,0

tt = temperatuur
td = dauwpunt
ff = windsnelheid
fx = windstoten
dd = windrichting
ppp = luchtdruk
vv = zicht
rr = neerslag

Weerstations in de omgeving